| time (UTC) | temp F | wind direction | speed knots | gust knots | rain 1hr in | rain 24hr in | rain mn in | humidity % | barometer mb |
| 20260505023026 | 65 | 219 | 0.0 | 0.9 | 0.00 | 0.00 | 0.00 | 65 | 1010.7 |
| 20260505021525 | 66 | 219 | 0.0 | 0.9 | 0.00 | 0.00 | 0.00 | 63 | 1010.7 |
| 20260505020025 | 67 | 219 | 0.0 | 1.7 | 0.00 | 0.00 | 0.00 | 62 | 1010.4 |
| 20260505014530 | 68 | 219 | 0.0 | 2.6 | 0.00 | 0.00 | 0.00 | 60 | 1010.6 |
| 20260505013029 | 68 | 219 | 0.0 | 0.9 | 0.00 | 0.00 | 0.00 | 59 | 1010.5 |
| 20260505011524 | 70 | 219 | 0.0 | 1.7 | 0.00 | 0.00 | 0.00 | 57 | 1010.3 |
| 20260505010024 | 71 | 219 | 0.0 | 2.6 | 0.00 | 0.00 | 0.00 | 56 | 1010.4 |
| 20260505004524 | 72 | 203 | 0.9 | 3.5 | 0.00 | 0.00 | 0.00 | 53 | 1010.4 |
| 20260505003022 | 73 | 212 | 0.9 | 4.3 | 0.00 | 0.00 | 0.00 | 51 | 1010.5 |
| 20260505001522 | 74 | 222 | 1.7 | 7.0 | 0.00 | 0.00 | 0.00 | 50 | 1010.4 |
| 20260505000030 | 74 | 219 | 0.9 | 7.0 | 0.00 | 0.00 | 0.00 | 49 | 1010.3 |
| 20260504234522 | 75 | 179 | 1.7 | 7.0 | 0.00 | 0.00 | 0.00 | 48 | 1010.4 |
| 20260504233023 | 76 | 160 | 2.6 | 13.9 | 0.00 | 0.00 | 0.00 | 48 | 1010.3 |
| 20260504231527 | 77 | 158 | 1.7 | 8.7 | 0.00 | 0.00 | 0.00 | 48 | 1010.3 |
| 20260504230019 | 78 | 207 | 4.3 | 7.8 | 0.00 | 0.00 | 0.00 | 45 | 1010.4 |
| 20260504224522 | 79 | 192 | 0.9 | 8.7 | 0.00 | 0.00 | 0.00 | 45 | 1010.4 |
| 20260504223016 | 79 | 159 | 4.3 | 13.9 | 0.00 | 0.00 | 0.00 | 45 | 1010.4 |
| 20260504221515 | 79 | 170 | 5.2 | 12.2 | 0.00 | 0.00 | 0.00 | 44 | 1010.3 |
| 20260504220019 | 80 | 219 | 4.3 | 12.2 | 0.00 | 0.00 | 0.00 | 45 | 1010.4 |
| 20260504214514 | 80 | 259 | 5.2 | 14.8 | 0.00 | 0.00 | 0.00 | 44 | 1010.4 |
| 20260504213013 | 80 | 167 | 3.5 | 12.2 | 0.00 | 0.00 | 0.00 | 43 | 1010.3 |
| 20260504211513 | 80 | 184 | 4.3 | 11.3 | 0.00 | 0.00 | 0.00 | 46 | 1010.4 |
| 20260504210010 | 80 | 217 | 2.6 | 7.8 | 0.00 | 0.00 | 0.00 | 46 | 1010.5 |
| 20260504204509 | 80 | 227 | 6.1 | 13.0 | 0.00 | 0.00 | 0.00 | 45 | 1010.6 |
| 20260504203018 | 80 | 221 | 7.0 | 11.3 | 0.00 | 0.00 | 0.00 | 44 | 1011.0 |
| 20260504201506 | 80 | 212 | 1.7 | 10.4 | 0.00 | 0.00 | 0.00 | 47 | 1011.0 |
| 20260504200005 | 80 | 174 | 2.6 | 11.3 | 0.00 | 0.00 | 0.00 | 48 | 1011.3 |
| 20260504194503 | 80 | 228 | 7.0 | 16.5 | 0.00 | 0.00 | 0.00 | 46 | 1011.9 |
| 20260504193000 | 80 | 193 | 2.6 | 7.8 | 0.00 | 0.00 | 0.00 | 48 | 1012.0 |
| 20260504191559 | 80 | 212 | 4.3 | 12.2 | 0.00 | 0.00 | 0.00 | 47 | 1012.3 |
| 20260504190125 | 80 | 223 | 4.3 | 9.6 | 0.00 | 0.00 | 0.00 | 46 | 1012.4 |
| 20260504184558 | 79 | 176 | 4.3 | 7.0 | 0.00 | 0.00 | 0.00 | 48 | 1012.4 |
| 20260504183051 | 78 | 212 | 4.3 | 12.2 | 0.00 | 0.00 | 0.00 | 50 | 1012.4 |
| 20260504181556 | 78 | 203 | 6.1 | 13.9 | 0.00 | 0.00 | 0.00 | 48 | 1012.5 |
| 20260504180128 | 78 | 181 | 3.5 | 11.3 | 0.00 | 0.00 | 0.00 | 50 | 1012.6 |
| 20260504174549 | 78 | 173 | 3.5 | 10.4 | 0.00 | 0.00 | 0.00 | 49 | 1012.9 |
| 20260504173056 | 78 | 225 | 3.5 | 8.7 | 0.00 | 0.00 | 0.00 | 50 | 1013.2 |
| 20260504171540 | 78 | 176 | 3.5 | 8.7 | 0.00 | 0.00 | 0.00 | 51 | 1013.3 |
| 20260504081515 | 56 | 229 | 0.0 | 2.6 | 0.00 | 0.00 | 0.00 | 75 | 1014.5 |
| 20260504050117 | 55 | 223 | 0.0 | 0.9 | 0.00 | 0.00 | 0.00 | 73 | 1015.9 |
| 20260504044548 | 55 | 223 | 0.0 | 1.7 | 0.00 | 0.00 | 0.00 | 74 | 1015.9 |
| 20260504043047 | 55 | 216 | 0.0 | 0.9 | 0.00 | 0.00 | 0.00 | 74 | 1016.0 |
| 20260504041547 | 55 | 216 | 0.0 | 0.0 | 0.00 | 0.00 | 0.00 | 75 | 1016.2 |
| 20260504040046 | 55 | 216 | 0.0 | 0.0 | 0.00 | 0.00 | 0.00 | 75 | 1016.4 |
| 20260504034551 | 54 | 216 | 0.0 | 0.9 | 0.00 | 0.00 | 0.00 | 75 | 1016.5 |
| 20260504033046 | 54 | 216 | 0.0 | 0.9 | 0.00 | 0.00 | 0.00 | 77 | 1016.4 |
| 20260504031603 | 53 | 216 | 0.0 | 0.9 | 0.00 | 0.00 | 0.00 | 79 | 1016.6 |
| 20260504030044 | 53 | 216 | 0.0 | 0.9 | 0.00 | 0.00 | 0.00 | 80 | 1016.8 |
| 20260504024545 | 53 | 216 | 0.0 | 0.9 | 0.00 | 0.00 | 0.00 | 79 | 1016.7 |